Location: Litvinovka
(48.6667°N, 34.3500°E)
Time: 18:11:43
(UTC+00:00)

Cosmos 2227 Rocket - Pass Details

Date: 18 September 2020
Orbit: 840 x 844 km, 71.0° (Epoch: 22 October)

Event Time Altitude Azimuth Distance (km) Brightness Sun altitude
Rises 23:37:17 0° 332° (NNW) 3,406 5.6 -33.5°
Reaches altitude 10° 23:39:45 10° 335° (NNW) 2,468 4.9 -33.3°
Enters shadow 23:43:08 37° 346° (NNW) 1,289 3.3 -32.9°
